Bellefontaine, OH

4:54 PM EST on February 23, 2017 (GMT -0500)
Bellefontaine

Weather History for KEDJ - February, 2014

Change the Weather History Date:

Wednesday, February 19, 2014

  Actual Average (KDAY) Record (KDAY)
Temperature  
Mean Temperature 36 °F -  
Max Temperature 42 °F 40 °F 70 °F (1939)
Min Temperature 30 °F 24 °F -11 °F (1910)
Degree Days  
Heating Degree Days 29    
Moisture  
Dew Point 32 °F    
Average Humidity 82    
Maximum Humidity 100    
Minimum Humidity 61    
Precipitation  
Precipitation 0.00 in - - ()
Sea Level Pressure  
Sea Level Pressure 29.85 in    
Wind  
Wind Speed 10 mph (SSW)    
Max Wind Speed 17 mph    
Max Gust Speed 22 mph    
Visibility 10 miles    
Events      
Averages and records for this station are not official NWS values.
T = Trace of Precipitation, MM = Missing Value Source: NWS Daily Summary

Daily Weather History Graph

Daily Weather History Graph

Search for Another Location

Airport or City:

Trip Planner

Search our weather history database for the weather conditions in past years. The results will help you decide how hot, cold, wet, or windy it might be!

Date:

Astronomy

Feb. 19, 2014 Rise Set
Actual Time 7:23 AM EST 6:15 PM EST
Civil Twilight 6:55 AM EST 6:43 PM EST
Nautical Twilight 6:23 AM EST 7:14 PM EST
Astronomical Twilight 5:52 AM EST 7:46 PM EST
Moon 11:08 PM EST (2/19) 9:27 AM EST (2/19)
Length of Visible Light 11h 47m
Length of Day
10h 52m
Waning Gibbous, 80% of the Moon is Illuminated
Feb 19
Waning Gibbous
Feb 22
Last Quarter
Mar 1
New
Mar 8
First Quarter
Mar 16
Full

Hourly Weather History & Observations

Time (EST) Temp. Windchill Dew Point Humidity Pressure Visibility Wind Dir Wind Speed Gust Speed Precip Events Conditions
12:10 AM 41.0 °F 34.7 °F 28.4 °F 61% 29.74 in 10.0 mi South 10.4 mph - 0.00 in   Clear
12:30 AM 42.8 °F 37.5 °F 30.2 °F 61% 29.73 in 10.0 mi South 9.2 mph - 0.00 in   Clear
12:50 AM 42.8 °F 36.6 °F 30.2 °F 61% 29.73 in 10.0 mi South 11.5 mph - 0.00 in   Scattered Clouds
1:10 AM 42.8 °F 36.6 °F 30.2 °F 61% 29.72 in 10.0 mi South 11.5 mph - 0.00 in   Partly Cloudy
1:30 AM 42.8 °F 36.6 °F 30.2 °F 61% 29.71 in 10.0 mi South 11.5 mph - 0.00 in   Clear
1:50 AM 41.0 °F 35.2 °F 30.2 °F 65% 29.70 in 10.0 mi SSE 9.2 mph - 0.00 in   Clear
2:10 AM 41.0 °F 34.7 °F 30.2 °F 65% 29.69 in 10.0 mi South 10.4 mph - 0.00 in   Clear
2:30 AM 41.0 °F 35.2 °F 30.2 °F 65% 29.68 in 10.0 mi South 9.2 mph - 0.00 in   Clear
2:50 AM 41.0 °F 34.3 °F 30.2 °F 65% 29.67 in 10.0 mi South 11.5 mph - 0.00 in   Clear
3:10 AM 41.0 °F 34.7 °F 30.2 °F 65% 29.67 in 10.0 mi South 10.4 mph - 0.00 in   Clear
3:30 AM 41.0 °F 34.7 °F 30.2 °F 65% 29.66 in 10.0 mi South 10.4 mph 17.3 mph 0.00 in   Clear
3:50 AM 41.0 °F 35.2 °F 32.0 °F 70% 29.65 in 10.0 mi South 9.2 mph - 0.00 in   Clear
4:10 AM 41.0 °F 34.3 °F 32.0 °F 70% 29.65 in 10.0 mi South 11.5 mph - 0.00 in   Clear
4:30 AM 41.0 °F 34.3 °F 32.0 °F 70% 29.64 in 10.0 mi South 11.5 mph - 0.00 in   Clear
4:50 AM 42.8 °F 37.0 °F 32.0 °F 66% 29.64 in 10.0 mi South 10.4 mph 18.4 mph 0.00 in   Clear
5:10 AM 41.0 °F 35.2 °F 32.0 °F 70% 29.63 in 10.0 mi SSW 9.2 mph - 0.00 in   Partly Cloudy
5:30 AM 39.2 °F 31.2 °F 32.0 °F 75% 29.64 in 10.0 mi SSW 13.8 mph - 0.00 in   Clear
5:50 AM 39.2 °F 32.5 °F 32.0 °F 75% 29.64 in 10.0 mi SSW 10.4 mph - 0.00 in   Clear
6:10 AM 39.2 °F 33.0 °F 33.8 °F 81% 29.64 in 10.0 mi SSW 9.2 mph - 0.00 in   Clear
6:30 AM 39.2 °F 33.0 °F 33.8 °F 81% 29.64 in 10.0 mi SSW 9.2 mph - 0.00 in   Clear
6:50 AM 39.2 °F 32.5 °F 33.8 °F 81% 29.64 in 10.0 mi SSW 10.4 mph - 0.00 in   Clear
7:10 AM 37.4 °F 30.8 °F 33.8 °F 87% 29.65 in 10.0 mi SSW 9.2 mph - 0.00 in   Clear
7:30 AM 37.4 °F 30.3 °F 33.8 °F 87% 29.66 in 10.0 mi SSW 10.4 mph - 0.00 in   Clear
7:50 AM 37.4 °F 30.8 °F 33.8 °F 87% 29.67 in 10.0 mi SW 9.2 mph - 0.00 in   Clear
8:10 AM 37.4 °F 30.8 °F 33.8 °F 87% 29.68 in 10.0 mi SW 9.2 mph - 0.00 in   Clear
8:30 AM 39.2 °F 33.0 °F 33.8 °F 81% 29.70 in 10.0 mi SW 9.2 mph - 0.00 in   Clear
8:50 AM 39.2 °F 32.5 °F 33.8 °F 81% 29.71 in 10.0 mi WSW 10.4 mph - 0.00 in   Clear
9:10 AM 37.4 °F 29.8 °F 32.0 °F 81% 29.72 in 10.0 mi West 11.5 mph - 0.00 in   Clear
9:30 AM 37.4 °F 29.8 °F 32.0 °F 81% 29.75 in 10.0 mi West 11.5 mph 21.9 mph 0.00 in   Clear
9:50 AM 37.4 °F 29.8 °F 32.0 °F 81% 29.76 in 10.0 mi West 11.5 mph - 0.00 in   Clear
10:10 AM 37.4 °F 29.3 °F 32.0 °F 81% 29.78 in 10.0 mi West 12.7 mph 18.4 mph 0.00 in   Clear
10:30 AM 35.6 °F 27.1 °F 32.0 °F 87% 29.79 in 10.0 mi West 12.7 mph - 0.00 in   Clear
10:50 AM 35.6 °F 27.5 °F 32.0 °F 87% 29.81 in 10.0 mi West 11.5 mph - 0.00 in   Clear
11:10 AM 35.6 °F 27.5 °F 32.0 °F 87% 29.83 in 10.0 mi West 11.5 mph - 0.00 in   Clear
11:30 AM 35.6 °F 25.5 °F 32.0 °F 87% 29.84 in 10.0 mi West 17.3 mph - 0.00 in   Clear
11:50 AM 35.6 °F 26.6 °F 30.2 °F 81% 29.85 in 10.0 mi West 13.8 mph 20.7 mph 0.00 in   Clear
12:10 PM 35.6 °F 26.2 °F 30.2 °F 81% 29.86 in 10.0 mi West 15.0 mph - 0.00 in   Clear
12:30 PM 35.6 °F 25.9 °F 30.2 °F 81% 29.87 in 10.0 mi West 16.1 mph - 0.00 in   Clear
12:50 PM 35.6 °F 27.5 °F 30.2 °F 81% 29.88 in 10.0 mi West 11.5 mph 16.1 mph 0.00 in   Clear
1:10 PM 35.6 °F 26.6 °F 30.2 °F 81% 29.89 in 10.0 mi West 13.8 mph - 0.00 in   Mostly Cloudy
1:30 PM 35.6 °F 26.2 °F 32.0 °F 87% 29.91 in 10.0 mi West 15.0 mph - 0.00 in   Overcast
1:50 PM 37.4 °F 28.9 °F 32.0 °F 81% 29.91 in 10.0 mi West 13.8 mph 18.4 mph 0.00 in   Mostly Cloudy
2:10 PM 37.4 °F 29.3 °F 32.0 °F 81% 29.92 in 10.0 mi West 12.7 mph 17.3 mph 0.00 in   Clear
2:30 PM 37.4 °F 29.3 °F 32.0 °F 81% 29.92 in 10.0 mi West 12.7 mph - 0.00 in   Clear
2:50 PM 37.4 °F 29.8 °F 32.0 °F 81% 29.93 in 10.0 mi West 11.5 mph - 0.00 in   Clear
3:10 PM 37.4 °F 30.3 °F 32.0 °F 81% 29.95 in 10.0 mi West 10.4 mph - 0.00 in   Clear
3:30 PM 37.4 °F 32.1 °F 32.0 °F 81% 29.96 in 10.0 mi West 6.9 mph - 0.00 in   Clear
3:50 PM 37.4 °F 30.8 °F 32.0 °F 81% 29.96 in 10.0 mi West 9.2 mph - 0.00 in   Clear
4:10 PM 37.4 °F 31.4 °F 32.0 °F 81% 29.98 in 10.0 mi West 8.1 mph - 0.00 in   Clear
4:30 PM 37.4 °F 31.4 °F 32.0 °F 81% 30.00 in 10.0 mi WSW 8.1 mph - 0.00 in   Clear
4:50 PM 37.4 °F 31.4 °F 32.0 °F 81% 30.01 in 10.0 mi WSW 8.1 mph - 0.00 in   Clear
5:10 PM 37.4 °F 32.1 °F 32.0 °F 81% 30.04 in 10.0 mi WSW 6.9 mph - 0.00 in   Clear
5:30 PM 37.4 °F 32.8 °F 32.0 °F 81% 30.04 in 10.0 mi WSW 5.8 mph - 0.00 in   Clear
5:50 PM 35.6 °F 32.8 °F 32.0 °F 87% 30.05 in 10.0 mi SSW 3.5 mph - 0.00 in   Clear
6:10 PM 33.8 °F 30.8 °F 32.0 °F 93% 30.06 in 10.0 mi South 3.5 mph - 0.00 in   Clear
6:30 PM 33.8 °F 29.6 °F 32.0 °F 93% 30.06 in 10.0 mi SSE 4.6 mph - 0.00 in   Clear
6:50 PM 33.8 °F 29.6 °F 32.0 °F 93% 30.06 in 10.0 mi SE 4.6 mph - 0.00 in   Clear
7:10 PM 33.8 °F 29.6 °F 32.0 °F 93% 30.06 in 10.0 mi SSE 4.6 mph - 0.00 in   Clear
7:30 PM 33.8 °F 28.6 °F 32.0 °F 93% 30.06 in 10.0 mi SSE 5.8 mph - 0.00 in   Clear
7:50 PM 32.0 °F 25.6 °F 32.0 °F 100% 30.06 in 10.0 mi SSE 6.9 mph - 0.00 in   Clear
8:10 PM 32.0 °F 26.4 °F 32.0 °F 100% 30.06 in 10.0 mi SE 5.8 mph - 0.00 in   Clear
8:30 PM 32.0 °F 25.6 °F 32.0 °F 100% 30.05 in 10.0 mi SSE 6.9 mph - 0.00 in   Clear
8:50 PM 32.0 °F 25.6 °F 32.0 °F 100% 30.05 in 10.0 mi SE 6.9 mph - 0.00 in   Clear
9:10 PM 32.0 °F 26.4 °F 32.0 °F 100% 30.04 in 10.0 mi ESE 5.8 mph - 0.00 in   Clear
9:30 PM 33.8 °F 27.7 °F 32.0 °F 93% 30.02 in 10.0 mi ESE 6.9 mph - 0.00 in   Clear
9:50 PM 33.8 °F 28.6 °F 32.0 °F 93% 30.01 in 10.0 mi ESE 5.8 mph - 0.00 in   Clear
10:10 PM 33.8 °F 28.6 °F 32.0 °F 93% 30.00 in 10.0 mi ESE 5.8 mph - 0.00 in   Clear
10:30 PM 33.8 °F 27.7 °F 32.0 °F 93% 30.00 in 10.0 mi SE 6.9 mph - 0.00 in   Clear
10:50 PM 32.0 °F 26.4 °F 30.2 °F 93% 30.02 in 10.0 mi South 5.8 mph - 0.00 in   Clear
11:10 PM 30.2 °F 22.6 °F 30.2 °F 100% 30.05 in 8.0 mi South 8.1 mph - 0.00 in   Clear
11:30 PM 32.0 °F 24.2 °F 32.0 °F 100% 30.03 in 9.0 mi ESE 9.2 mph - 0.00 in   Clear
11:50 PM 32.0 °F 24.2 °F 30.2 °F 93% 30.03 in 10.0 mi SE 9.2 mph - 0.00 in   Clear